Year,Month,Day,Hour,Minute,Value (Times are PST for temperature in C)
2008,07,24,00,00,10.90
2008,07,24,00,01,10.80
2008,07,24,00,02,10.80
2008,07,24,00,03,10.80
2008,07,24,00,04,10.80
2008,07,24,00,05,10.80
2008,07,24,00,06,10.70
2008,07,24,00,07,10.70
2008,07,24,00,08,10.70
2008,07,24,00,09,10.70
2008,07,24,00,10,10.70
2008,07,24,00,11,10.60
2008,07,24,00,12,10.60
2008,07,24,00,13,10.60
2008,07,24,00,14,10.60
2008,07,24,00,15,10.60
2008,07,24,00,16,10.50
2008,07,24,00,17,10.50
2008,07,24,00,18,10.50
2008,07,24,00,19,10.50
2008,07,24,00,20,10.50
2008,07,24,00,21,10.50
2008,07,24,00,22,10.50
2008,07,24,00,23,10.50
2008,07,24,00,24,10.50
2008,07,24,00,25,10.50
2008,07,24,00,26,10.50
2008,07,24,00,27,10.50
2008,07,24,00,28,10.50
2008,07,24,00,29,10.50
2008,07,24,00,30,10.50
2008,07,24,00,31,10.50
2008,07,24,00,32,10.50
2008,07,24,00,33,10.50
2008,07,24,00,34,10.50
2008,07,24,00,35,10.40
2008,07,24,00,36,10.40
2008,07,24,00,37,10.40
2008,07,24,00,38,10.40
2008,07,24,00,39,10.40
2008,07,24,00,40,10.40
2008,07,24,00,41,10.40
2008,07,24,00,42,10.40
2008,07,24,00,43,10.30
2008,07,24,00,44,10.30
2008,07,24,00,45,10.30
2008,07,24,00,46,10.30
2008,07,24,00,47,10.30
2008,07,24,00,48,10.30
2008,07,24,00,49,10.20
2008,07,24,00,50,10.20
2008,07,24,00,51,10.20
2008,07,24,00,52,10.20
2008,07,24,00,53,10.20
2008,07,24,00,54,10.20
2008,07,24,00,55,10.20
2008,07,24,00,56,10.20
2008,07,24,00,57,10.20
2008,07,24,00,58,10.20
2008,07,24,00,59,10.20
2008,07,24,01,00,10.20
2008,07,24,01,01,10.20
2008,07,24,01,02,10.10
2008,07,24,01,03,10.10
2008,07,24,01,04,10.10
2008,07,24,01,05,10.10
2008,07,24,01,06,10.10
2008,07,24,01,07,10.10
2008,07,24,01,08,10.00
2008,07,24,01,09,10.00
2008,07,24,01,10,10.00
2008,07,24,01,11,10.00
2008,07,24,01,12,10.00
2008,07,24,01,13,10.00
2008,07,24,01,14,10.00
2008,07,24,01,15,10.00
2008,07,24,01,16,9.90
2008,07,24,01,17,9.90
2008,07,24,01,18,9.90
2008,07,24,01,19,9.90
2008,07,24,01,20,9.90
2008,07,24,01,21,9.90
2008,07,24,01,22,9.90
2008,07,24,01,23,9.90
2008,07,24,01,24,9.80
2008,07,24,01,25,9.80
2008,07,24,01,26,9.80
2008,07,24,01,27,9.80
2008,07,24,01,28,9.80
2008,07,24,01,29,9.80
2008,07,24,01,30,9.90
2008,07,24,01,31,9.90
2008,07,24,01,32,9.90
2008,07,24,01,33,9.90
2008,07,24,01,34,9.90
2008,07,24,01,35,9.90
2008,07,24,01,36,9.90
2008,07,24,01,37,9.80
2008,07,24,01,38,9.80
2008,07,24,01,39,9.80
2008,07,24,01,40,9.80
2008,07,24,01,41,9.80
2008,07,24,01,42,9.80
2008,07,24,01,43,9.80
2008,07,24,01,44,9.80
2008,07,24,01,45,9.70
2008,07,24,01,46,9.70
2008,07,24,01,47,9.70
2008,07,24,01,48,9.70
2008,07,24,01,49,9.70
2008,07,24,01,50,9.70
2008,07,24,01,51,9.70
2008,07,24,01,52,9.70
2008,07,24,01,53,9.70
2008,07,24,01,54,9.70
2008,07,24,01,55,9.70
2008,07,24,01,56,9.70
2008,07,24,01,57,9.70
2008,07,24,01,58,9.70
2008,07,24,01,59,9.60
2008,07,24,02,00,9.60
2008,07,24,02,01,9.60
2008,07,24,02,02,9.60
2008,07,24,02,03,9.60
2008,07,24,02,04,9.50
2008,07,24,02,05,9.50
2008,07,24,02,06,9.40
2008,07,24,02,07,9.40
2008,07,24,02,08,9.40
2008,07,24,02,09,9.40
2008,07,24,02,10,9.40
2008,07,24,02,11,9.40
2008,07,24,02,12,9.40
2008,07,24,02,13,9.40
2008,07,24,02,14,9.40
2008,07,24,02,15,9.50
2008,07,24,02,16,9.50
2008,07,24,02,17,9.50
2008,07,24,02,18,9.50
2008,07,24,02,19,9.60
2008,07,24,02,20,9.60
2008,07,24,02,21,9.60
2008,07,24,02,22,9.60
2008,07,24,02,23,9.60
2008,07,24,02,24,9.50
2008,07,24,02,25,9.50
2008,07,24,02,26,9.50
2008,07,24,02,27,9.50
2008,07,24,02,28,9.40
2008,07,24,02,29,9.40
2008,07,24,02,30,9.40
2008,07,24,02,31,9.30
2008,07,24,02,32,9.30
2008,07,24,02,33,9.30
2008,07,24,02,34,9.30
2008,07,24,02,35,9.30
2008,07,24,02,36,9.30
2008,07,24,02,37,9.20
2008,07,24,02,38,9.20
2008,07,24,02,39,9.20
2008,07,24,02,40,9.20
2008,07,24,02,41,9.20
2008,07,24,02,42,9.20
2008,07,24,02,43,9.20
2008,07,24,02,44,9.20
2008,07,24,02,45,9.20
2008,07,24,02,46,9.20
2008,07,24,02,47,9.20
2008,07,24,02,48,9.20
2008,07,24,02,49,9.20
2008,07,24,02,50,9.20
2008,07,24,02,51,9.20
2008,07,24,02,52,9.20
2008,07,24,02,53,9.20
2008,07,24,02,54,9.20
2008,07,24,02,55,9.20
2008,07,24,02,56,9.20
2008,07,24,02,57,9.20
2008,07,24,02,58,9.20
2008,07,24,02,59,9.20
2008,07,24,03,00,9.20
2008,07,24,03,01,9.20
2008,07,24,03,02,9.20
2008,07,24,03,03,9.20
2008,07,24,03,04,9.20
2008,07,24,03,05,9.20
2008,07,24,03,06,9.20
2008,07,24,03,07,9.20
2008,07,24,03,08,9.20
2008,07,24,03,09,9.20
2008,07,24,03,10,9.10
2008,07,24,03,11,9.10
2008,07,24,03,12,9.00
2008,07,24,03,13,9.00
2008,07,24,03,14,8.90
2008,07,24,03,15,8.90
2008,07,24,03,16,8.90
2008,07,24,03,17,8.90
2008,07,24,03,18,8.80
2008,07,24,03,19,8.80
2008,07,24,03,20,8.80
2008,07,24,03,21,8.80
2008,07,24,03,22,8.80
2008,07,24,03,23,8.80
2008,07,24,03,24,8.90
2008,07,24,03,25,8.90
2008,07,24,03,26,8.90
2008,07,24,03,27,8.90
2008,07,24,03,28,8.90
2008,07,24,03,29,8.90
2008,07,24,03,30,8.90
2008,07,24,03,31,8.80
2008,07,24,03,32,8.80
2008,07,24,03,33,8.80
2008,07,24,03,34,8.80
2008,07,24,03,35,8.80
2008,07,24,03,36,8.70
2008,07,24,03,37,8.70
2008,07,24,03,38,8.70
2008,07,24,03,39,8.80
2008,07,24,03,40,8.80
2008,07,24,03,41,8.80
2008,07,24,03,42,8.80
2008,07,24,03,43,8.90
2008,07,24,03,44,8.90
2008,07,24,03,45,9.00
2008,07,24,03,46,9.00
2008,07,24,03,47,9.00
2008,07,24,03,48,9.00
2008,07,24,03,49,8.90
2008,07,24,03,50,8.90
2008,07,24,03,51,8.90
2008,07,24,03,52,8.80
2008,07,24,03,53,8.80
2008,07,24,03,54,8.80
2008,07,24,03,55,8.70
2008,07,24,03,56,8.70
2008,07,24,03,57,8.70
2008,07,24,03,58,8.70
2008,07,24,03,59,8.60
2008,07,24,04,00,8.60
2008,07,24,04,01,8.60
2008,07,24,04,02,8.60
2008,07,24,04,03,8.60
2008,07,24,04,04,8.60
2008,07,24,04,05,8.60
2008,07,24,04,13,8.70
2008,07,24,04,14,8.70
2008,07,24,04,15,8.70
2008,07,24,04,16,8.70
2008,07,24,04,17,8.60
2008,07,24,04,18,8.60
2008,07,24,04,19,8.60
2008,07,24,04,20,8.50
2008,07,24,04,21,8.50
2008,07,24,04,22,8.50
2008,07,24,04,23,8.40
2008,07,24,04,24,8.40
2008,07,24,04,25,8.50
2008,07,24,04,26,8.50
2008,07,24,04,27,8.60
2008,07,24,04,28,8.60
2008,07,24,04,29,8.60
2008,07,24,04,30,8.60
2008,07,24,04,31,8.60
2008,07,24,04,32,8.60
2008,07,24,04,33,8.60
2008,07,24,04,34,8.60
2008,07,24,04,35,8.60
2008,07,24,04,36,8.60
2008,07,24,04,37,8.60
2008,07,24,04,38,8.60
2008,07,24,04,39,8.60
2008,07,24,04,40,8.60
2008,07,24,04,41,8.60
2008,07,24,04,42,8.60
2008,07,24,04,43,8.60
2008,07,24,04,44,8.60
2008,07,24,04,45,8.60
2008,07,24,04,46,8.50
2008,07,24,04,47,8.50
2008,07,24,04,48,8.60
2008,07,24,04,49,8.60
2008,07,24,04,50,8.60
2008,07,24,04,51,8.60
2008,07,24,04,52,8.50
2008,07,24,04,53,8.50
2008,07,24,04,54,8.50
2008,07,24,04,55,8.50
2008,07,24,04,56,8.50
2008,07,24,04,57,8.50
2008,07,24,04,58,8.50
2008,07,24,04,59,8.50
2008,07,24,05,00,8.50
2008,07,24,05,01,8.50
2008,07,24,05,02,8.40
2008,07,24,05,03,8.40
2008,07,24,05,04,8.40
2008,07,24,05,05,8.40
2008,07,24,05,06,8.40
2008,07,24,05,07,8.30
2008,07,24,05,08,8.30
2008,07,24,05,09,8.30
2008,07,24,05,10,8.30
2008,07,24,05,11,8.30
2008,07,24,05,12,8.30
2008,07,24,05,13,8.30
2008,07,24,05,14,8.30
2008,07,24,05,15,8.30
2008,07,24,05,16,8.30
2008,07,24,05,17,8.30
2008,07,24,05,18,8.30
2008,07,24,05,19,8.30
2008,07,24,05,20,8.30
2008,07,24,05,21,8.30
2008,07,24,05,22,8.30
2008,07,24,05,23,8.30
2008,07,24,05,24,8.30
2008,07,24,05,25,8.30
2008,07,24,05,26,8.30
2008,07,24,05,27,8.30
2008,07,24,05,28,8.30
2008,07,24,05,29,8.40
2008,07,24,05,30,8.40
2008,07,24,05,31,8.40
2008,07,24,05,32,8.40
2008,07,24,05,33,8.40
2008,07,24,05,34,8.40
2008,07,24,05,35,8.40
2008,07,24,05,36,8.40
2008,07,24,05,37,8.40
2008,07,24,05,38,8.40
2008,07,24,05,39,8.40
2008,07,24,05,40,8.40
2008,07,24,05,41,8.40
2008,07,24,05,42,8.40
2008,07,24,05,43,8.40
2008,07,24,05,44,8.40
2008,07,24,05,45,8.40
2008,07,24,05,46,8.40
2008,07,24,05,47,8.40
2008,07,24,05,48,8.40
2008,07,24,05,49,8.40
2008,07,24,05,50,8.40
2008,07,24,05,51,8.40
2008,07,24,05,52,8.40
2008,07,24,05,53,8.30
2008,07,24,05,54,8.30
2008,07,24,05,55,8.30
2008,07,24,05,56,8.30
2008,07,24,05,57,8.30
2008,07,24,05,58,8.30
2008,07,24,05,59,8.30
2008,07,24,06,00,8.30
2008,07,24,06,01,8.30
2008,07,24,06,02,8.30
2008,07,24,06,03,8.30
2008,07,24,06,04,8.40
2008,07,24,06,05,8.40
2008,07,24,06,06,8.50
2008,07,24,06,07,8.50
2008,07,24,06,08,8.60
2008,07,24,06,09,8.60
2008,07,24,06,10,8.60
2008,07,24,06,11,8.70
2008,07,24,06,12,8.70
2008,07,24,06,13,8.70
2008,07,24,06,14,8.70
2008,07,24,06,15,8.70
2008,07,24,06,16,8.70
2008,07,24,06,17,8.70
2008,07,24,06,18,8.70
2008,07,24,06,19,8.70
2008,07,24,06,20,8.80
2008,07,24,06,21,8.80
2008,07,24,06,22,8.80
2008,07,24,06,23,8.80
2008,07,24,06,24,8.80
2008,07,24,06,25,8.80
2008,07,24,06,26,8.80
2008,07,24,06,27,8.80
2008,07,24,06,28,8.80
2008,07,24,06,29,8.80
2008,07,24,06,30,8.80
2008,07,24,06,31,8.90
2008,07,24,06,32,8.90
2008,07,24,06,33,8.90
2008,07,24,06,34,8.90
2008,07,24,06,35,8.90
2008,07,24,06,36,9.00
2008,07,24,06,37,9.00
2008,07,24,06,38,9.00
2008,07,24,06,39,9.00
2008,07,24,06,40,9.00
2008,07,24,06,41,9.10
2008,07,24,06,42,9.10
2008,07,24,06,43,9.10
2008,07,24,06,44,9.20
2008,07,24,06,45,9.20
2008,07,24,06,46,9.20
2008,07,24,06,47,9.20
2008,07,24,06,48,9.30
2008,07,24,06,49,9.30
2008,07,24,06,50,9.30
2008,07,24,06,51,9.30
2008,07,24,06,52,9.30
2008,07,24,06,53,9.40
2008,07,24,06,54,9.40
2008,07,24,06,55,9.40
2008,07,24,06,56,9.40
2008,07,24,06,57,9.50
2008,07,24,06,58,9.50
2008,07,24,06,59,9.60
2008,07,24,07,00,9.60
2008,07,24,07,01,9.60
2008,07,24,07,02,9.60
2008,07,24,07,03,9.60
2008,07,24,07,04,9.70
2008,07,24,07,05,9.70
2008,07,24,07,06,9.70
2008,07,24,07,07,9.70
2008,07,24,07,08,9.80
2008,07,24,07,09,9.80
2008,07,24,07,10,9.80
2008,07,24,07,11,9.80
2008,07,24,07,12,9.80
2008,07,24,07,13,9.80
2008,07,24,07,14,9.90
2008,07,24,07,15,9.90
2008,07,24,07,16,9.90
2008,07,24,07,17,9.90
2008,07,24,07,18,10.00
2008,07,24,07,19,10.00
2008,07,24,07,20,10.00
2008,07,24,07,21,10.10
2008,07,24,07,22,10.10
2008,07,24,07,23,10.10
2008,07,24,07,24,10.10
2008,07,24,07,25,10.10
2008,07,24,07,26,10.20
2008,07,24,07,27,10.20
2008,07,24,07,28,10.20
2008,07,24,07,29,10.20
2008,07,24,07,30,10.30
2008,07,24,07,31,10.30
2008,07,24,07,32,10.30
2008,07,24,07,33,10.30
2008,07,24,07,34,10.40
2008,07,24,07,35,10.40
2008,07,24,07,36,10.50
2008,07,24,07,37,10.50
2008,07,24,07,38,10.60
2008,07,24,07,39,10.60
2008,07,24,07,40,10.70
2008,07,24,07,41,10.70
2008,07,24,07,42,10.80
2008,07,24,07,43,10.80
2008,07,24,07,44,10.90
2008,07,24,07,45,11.00
2008,07,24,07,46,11.10
2008,07,24,07,47,11.10
2008,07,24,07,48,11.20
2008,07,24,07,49,11.20
2008,07,24,07,50,11.30
2008,07,24,07,51,11.30
2008,07,24,07,52,11.40
2008,07,24,07,53,11.40
2008,07,24,07,54,11.40
2008,07,24,07,55,11.50
2008,07,24,07,56,11.50
2008,07,24,07,57,11.60
2008,07,24,07,58,11.60
2008,07,24,07,59,11.70
2008,07,24,08,00,11.70
2008,07,24,08,01,11.80
2008,07,24,08,02,11.80
2008,07,24,08,03,11.90
2008,07,24,08,04,11.90
2008,07,24,08,05,12.00
2008,07,24,08,06,12.00
2008,07,24,08,07,12.10
2008,07,24,08,08,12.10
2008,07,24,08,09,12.20
2008,07,24,08,10,12.20
2008,07,24,08,11,12.30
2008,07,24,08,12,12.30
2008,07,24,08,13,12.40
2008,07,24,08,14,12.40
2008,07,24,08,15,12.50
2008,07,24,08,16,12.50
2008,07,24,08,17,12.60
2008,07,24,08,18,12.60
2008,07,24,08,19,12.60
2008,07,24,08,20,12.70
2008,07,24,08,21,12.70
2008,07,24,08,22,12.80
2008,07,24,08,23,12.80
2008,07,24,08,24,12.80
2008,07,24,08,25,12.90
2008,07,24,08,26,12.90
2008,07,24,08,27,13.00
2008,07,24,08,28,13.10
2008,07,24,08,29,13.10
2008,07,24,08,30,13.10
2008,07,24,08,31,13.20
2008,07,24,08,32,13.20
2008,07,24,08,33,13.30
2008,07,24,08,34,13.30
2008,07,24,08,35,13.40
2008,07,24,08,36,13.40
2008,07,24,08,37,13.50
2008,07,24,08,38,13.50
2008,07,24,08,39,13.60
2008,07,24,08,40,13.60
2008,07,24,08,41,13.70
2008,07,24,08,42,13.70
2008,07,24,08,43,13.80
2008,07,24,08,44,13.80
2008,07,24,08,45,13.80
2008,07,24,08,46,13.90
2008,07,24,08,47,13.90
2008,07,24,08,48,14.00
2008,07,24,08,49,14.00
2008,07,24,08,50,14.10
2008,07,24,08,51,14.10
2008,07,24,08,52,14.10
2008,07,24,08,53,14.20
2008,07,24,08,54,14.20
2008,07,24,08,55,14.20
2008,07,24,08,56,14.30
2008,07,24,08,57,14.30
2008,07,24,08,58,14.40
2008,07,24,08,59,14.40
2008,07,24,09,00,14.50
2008,07,24,09,01,14.50
2008,07,24,09,02,14.60
2008,07,24,09,03,14.60
2008,07,24,09,04,14.70
2008,07,24,09,05,14.70
2008,07,24,09,06,14.80
2008,07,24,09,07,14.80
2008,07,24,09,08,14.90
2008,07,24,09,09,15.00
2008,07,24,09,10,15.00
2008,07,24,09,11,15.00
2008,07,24,09,12,15.00
2008,07,24,09,13,15.00
2008,07,24,09,14,15.00
2008,07,24,09,15,15.00
2008,07,24,09,16,15.00
2008,07,24,09,17,15.00
2008,07,24,09,18,15.00
2008,07,24,09,19,15.00
2008,07,24,09,20,15.00
2008,07,24,09,21,15.10
2008,07,24,09,22,15.10
2008,07,24,09,23,15.20
2008,07,24,09,24,15.20
2008,07,24,09,25,15.30
2008,07,24,09,26,15.30
2008,07,24,09,27,15.40
2008,07,24,09,28,15.40
2008,07,24,09,29,15.50
2008,07,24,09,30,15.60
2008,07,24,09,31,15.60
2008,07,24,09,32,15.70
2008,07,24,09,33,15.70
2008,07,24,09,34,15.80
2008,07,24,09,35,15.90
2008,07,24,09,36,15.90
2008,07,24,09,37,16.10
2008,07,24,09,38,16.20
2008,07,24,09,39,16.40
2008,07,24,09,40,16.50
2008,07,24,09,41,16.60
2008,07,24,09,42,16.70
2008,07,24,09,43,16.80
2008,07,24,09,44,16.90
2008,07,24,09,45,16.90
2008,07,24,09,46,16.80
2008,07,24,09,47,16.80
2008,07,24,09,48,16.70
2008,07,24,09,49,16.70
2008,07,24,09,50,16.60
2008,07,24,09,51,16.60
2008,07,24,09,52,16.60
2008,07,24,09,53,16.60
2008,07,24,09,54,16.60
2008,07,24,09,55,16.60
2008,07,24,09,56,16.60
2008,07,24,09,57,16.70
2008,07,24,09,58,16.70
2008,07,24,09,59,16.80
2008,07,24,10,00,16.80
2008,07,24,10,01,16.90
2008,07,24,10,02,17.00
2008,07,24,10,03,17.10
2008,07,24,10,04,17.30
2008,07,24,10,05,17.50
2008,07,24,10,06,17.60
2008,07,24,10,07,17.70
2008,07,24,10,08,17.70
2008,07,24,10,09,17.70
2008,07,24,10,10,17.60
2008,07,24,10,11,17.40
2008,07,24,10,12,17.30
2008,07,24,10,13,17.30
2008,07,24,10,14,17.30
2008,07,24,10,15,17.20
2008,07,24,10,16,17.20
2008,07,24,10,17,17.20
2008,07,24,10,18,17.20
2008,07,24,10,19,17.30
2008,07,24,10,20,17.30
2008,07,24,10,21,17.40
2008,07,24,10,22,17.40
2008,07,24,10,23,17.50
2008,07,24,10,24,17.50
2008,07,24,10,25,17.50
2008,07,24,10,26,17.40
2008,07,24,10,27,17.40
2008,07,24,10,28,17.50
2008,07,24,10,29,17.50
2008,07,24,10,30,17.60
2008,07,24,10,31,17.60
2008,07,24,10,32,17.60
2008,07,24,10,33,17.60
2008,07,24,10,34,17.60
2008,07,24,10,35,17.60
2008,07,24,10,36,17.70
2008,07,24,10,37,17.70
2008,07,24,10,38,17.70
2008,07,24,10,39,17.70
2008,07,24,10,40,17.70
2008,07,24,10,41,17.70
2008,07,24,10,42,17.80
2008,07,24,10,43,17.90
2008,07,24,10,44,17.90
2008,07,24,10,45,18.00
2008,07,24,10,46,18.20
2008,07,24,10,47,18.30
2008,07,24,10,48,18.40
2008,07,24,10,49,18.30
2008,07,24,10,50,18.30
2008,07,24,10,51,18.30
2008,07,24,10,52,18.30
2008,07,24,10,53,18.30
2008,07,24,10,54,18.40
2008,07,24,10,55,18.50
2008,07,24,10,56,18.60
2008,07,24,10,57,18.60
2008,07,24,10,58,18.50
2008,07,24,10,59,18.40
2008,07,24,11,00,18.30
2008,07,24,11,01,18.30
2008,07,24,11,02,18.40
2008,07,24,11,03,18.40
2008,07,24,11,04,18.40
2008,07,24,11,05,18.50
2008,07,24,11,06,18.50
2008,07,24,11,07,18.60
2008,07,24,11,08,18.70
2008,07,24,11,09,18.60
2008,07,24,11,10,18.70
2008,07,24,11,11,18.70
2008,07,24,11,12,18.70
2008,07,24,11,13,18.70
2008,07,24,11,14,18.60
2008,07,24,11,15,18.50
2008,07,24,11,16,18.40
2008,07,24,11,17,18.40
2008,07,24,11,18,18.40
2008,07,24,11,19,18.40
2008,07,24,11,20,18.50
2008,07,24,11,21,18.60
2008,07,24,11,22,18.70
2008,07,24,11,23,18.70
2008,07,24,11,24,18.60
2008,07,24,11,25,18.60
2008,07,24,11,26,18.70
2008,07,24,11,27,18.80
2008,07,24,11,28,18.80
2008,07,24,11,29,18.90
2008,07,24,11,30,19.00
2008,07,24,11,31,19.10
2008,07,24,11,32,19.10
2008,07,24,11,33,19.20
2008,07,24,11,34,19.30
2008,07,24,11,35,19.20
2008,07,24,11,36,19.00
2008,07,24,11,37,18.90
2008,07,24,11,38,18.90
2008,07,24,11,39,18.90
2008,07,24,11,40,18.90
2008,07,24,11,41,18.90
2008,07,24,11,42,18.90
2008,07,24,11,43,18.90
2008,07,24,11,44,19.00
2008,07,24,11,45,19.00
2008,07,24,11,46,19.10
2008,07,24,11,47,19.10
2008,07,24,11,48,19.10
2008,07,24,11,49,19.10
2008,07,24,11,50,19.00
2008,07,24,11,51,19.10
2008,07,24,11,52,19.20
2008,07,24,11,53,19.30
2008,07,24,11,54,19.40
2008,07,24,11,55,19.40
2008,07,24,11,56,19.50
2008,07,24,11,57,19.40
2008,07,24,11,58,19.40
2008,07,24,11,59,19.50
2008,07,24,12,00,19.60
2008,07,24,12,01,19.70
2008,07,24,12,02,19.70
2008,07,24,12,03,19.70
2008,07,24,12,04,19.60
2008,07,24,12,05,19.50
2008,07,24,12,06,19.40
2008,07,24,12,07,19.30
2008,07,24,12,08,19.30
2008,07,24,12,09,19.40
2008,07,24,12,10,19.50
2008,07,24,12,11,19.70
2008,07,24,12,12,19.80
2008,07,24,12,13,19.90
2008,07,24,12,14,20.00
2008,07,24,12,15,20.10
2008,07,24,12,16,20.20
2008,07,24,12,17,20.30
2008,07,24,12,18,20.30
2008,07,24,12,19,20.40
2008,07,24,12,20,20.50
2008,07,24,12,21,20.60
2008,07,24,12,22,20.60
2008,07,24,12,23,20.60
2008,07,24,12,24,20.60
2008,07,24,12,25,20.70
2008,07,24,12,26,20.60
2008,07,24,12,27,20.50
2008,07,24,12,28,20.50
2008,07,24,12,29,20.30
2008,07,24,12,30,20.30
2008,07,24,12,31,20.30
2008,07,24,12,32,20.40
2008,07,24,12,33,20.30
2008,07,24,12,34,20.40
2008,07,24,12,35,20.40
2008,07,24,12,36,20.50
2008,07,24,12,37,20.60
2008,07,24,12,38,20.70
2008,07,24,12,39,20.60
2008,07,24,12,40,20.50
2008,07,24,12,41,20.40
2008,07,24,12,42,20.30
2008,07,24,12,43,20.30
2008,07,24,12,44,20.40
2008,07,24,12,45,20.50
2008,07,24,12,46,20.50
2008,07,24,12,47,20.70
2008,07,24,12,48,20.70
2008,07,24,12,49,20.70
2008,07,24,12,50,20.70
2008,07,24,12,51,20.70
2008,07,24,12,52,20.80
2008,07,24,12,53,20.80
2008,07,24,12,54,20.80
2008,07,24,12,55,20.80
2008,07,24,12,56,20.80
2008,07,24,12,57,20.80
2008,07,24,12,58,20.80
2008,07,24,12,59,20.80
2008,07,24,13,00,20.80
2008,07,24,13,01,20.90
2008,07,24,13,02,20.80
2008,07,24,13,03,20.80
2008,07,24,13,04,20.70
2008,07,24,13,05,20.60
2008,07,24,13,06,20.50
2008,07,24,13,07,20.50
2008,07,24,13,08,20.50
2008,07,24,13,09,20.60
2008,07,24,13,10,20.60
2008,07,24,13,11,20.80
2008,07,24,13,12,20.90
2008,07,24,13,13,21.00
2008,07,24,13,14,21.10
2008,07,24,13,15,21.20
2008,07,24,13,16,21.30
2008,07,24,13,17,21.40
2008,07,24,13,18,21.40
2008,07,24,13,19,21.40
2008,07,24,13,20,21.40
2008,07,24,13,21,21.30
2008,07,24,13,22,21.30
2008,07,24,13,23,21.40
2008,07,24,13,24,21.50
2008,07,24,13,25,21.50
2008,07,24,13,26,21.50
2008,07,24,13,27,21.50
2008,07,24,13,28,21.50
2008,07,24,13,29,21.40
2008,07,24,13,30,21.50
2008,07,24,13,31,21.60
2008,07,24,13,32,21.50
2008,07,24,13,33,21.40
2008,07,24,13,34,21.30
2008,07,24,13,35,21.30
2008,07,24,13,36,21.40
2008,07,24,13,37,21.50
2008,07,24,13,38,21.60
2008,07,24,13,39,21.80
2008,07,24,13,40,21.80
2008,07,24,13,41,21.70
2008,07,24,13,42,21.50
2008,07,24,13,43,21.40
2008,07,24,13,44,21.30
2008,07,24,13,45,21.40
2008,07,24,13,46,21.40
2008,07,24,13,47,21.50
2008,07,24,13,48,21.60
2008,07,24,13,49,21.60
2008,07,24,13,50,21.50
2008,07,24,13,51,21.40
2008,07,24,13,52,21.30
2008,07,24,13,53,21.40
2008,07,24,13,54,21.40
2008,07,24,13,55,21.50
2008,07,24,13,56,21.60
2008,07,24,13,57,21.70
2008,07,24,13,58,21.80
2008,07,24,13,59,21.80
2008,07,24,14,00,21.80
2008,07,24,14,01,21.80
2008,07,24,14,02,21.70
2008,07,24,14,03,21.70
2008,07,24,14,04,21.70
2008,07,24,14,05,21.70
2008,07,24,14,06,21.80
2008,07,24,14,07,21.80
2008,07,24,14,08,21.90
2008,07,24,14,09,21.90
2008,07,24,14,10,21.80
2008,07,24,14,11,21.80
2008,07,24,14,12,21.80
2008,07,24,14,13,21.80
2008,07,24,14,14,21.80
2008,07,24,14,15,21.70
2008,07,24,14,16,21.70
2008,07,24,14,17,21.70
2008,07,24,14,18,21.80
2008,07,24,14,19,21.80
2008,07,24,14,20,22.00
2008,07,24,14,21,22.10
2008,07,24,14,22,22.10
2008,07,24,14,23,22.10
2008,07,24,14,24,22.10
2008,07,24,14,25,22.10
2008,07,24,14,26,22.10
2008,07,24,14,27,22.30
2008,07,24,14,28,22.30
2008,07,24,14,29,22.20
2008,07,24,14,30,22.20
2008,07,24,14,31,22.10
2008,07,24,14,32,22.20
2008,07,24,14,33,22.20
2008,07,24,14,34,22.20
2008,07,24,14,35,22.30
2008,07,24,14,36,22.30
2008,07,24,14,37,22.30
2008,07,24,14,38,22.30
2008,07,24,14,39,22.30
2008,07,24,14,40,22.40
2008,07,24,14,41,22.40
2008,07,24,14,42,22.40
2008,07,24,14,43,22.40
2008,07,24,14,44,22.40
2008,07,24,14,45,22.40
2008,07,24,14,46,22.30
2008,07,24,14,47,22.20
2008,07,24,14,48,22.20
2008,07,24,14,49,22.30
2008,07,24,14,50,22.40
2008,07,24,14,51,22.60
2008,07,24,14,52,22.70
2008,07,24,14,53,22.80
2008,07,24,14,54,23.00
2008,07,24,14,55,23.10
2008,07,24,14,56,23.10
2008,07,24,14,57,23.10
2008,07,24,14,58,23.10
2008,07,24,14,59,23.20
2008,07,24,15,00,23.10
2008,07,24,15,01,23.10
2008,07,24,15,02,23.20
2008,07,24,15,03,23.30
2008,07,24,15,04,23.40
2008,07,24,15,05,23.50
2008,07,24,15,06,23.60
2008,07,24,15,07,23.70
2008,07,24,15,08,23.70
2008,07,24,15,09,23.70
2008,07,24,15,10,23.70
2008,07,24,15,11,23.70
2008,07,24,15,12,23.70
2008,07,24,15,13,23.70
2008,07,24,15,14,23.80
2008,07,24,15,15,23.80
2008,07,24,15,16,23.80
2008,07,24,15,17,23.80
2008,07,24,15,18,23.90
2008,07,24,15,19,24.00
2008,07,24,15,20,24.10
2008,07,24,15,21,24.10
2008,07,24,15,22,24.10
2008,07,24,15,23,24.10
2008,07,24,15,24,24.10
2008,07,24,15,25,24.20
2008,07,24,15,26,24.20
2008,07,24,15,27,24.20
2008,07,24,15,28,24.30
2008,07,24,15,29,24.30
2008,07,24,15,30,24.20
2008,07,24,15,31,24.20
2008,07,24,15,32,24.00
2008,07,24,15,33,23.80
2008,07,24,15,34,23.50
2008,07,24,15,35,23.30
2008,07,24,15,36,23.20
2008,07,24,15,37,23.10
2008,07,24,15,38,23.20
2008,07,24,15,39,23.20
2008,07,24,15,40,23.20
2008,07,24,15,41,23.20
2008,07,24,15,42,23.20
2008,07,24,15,43,23.20
2008,07,24,15,44,23.20
2008,07,24,15,45,23.20
2008,07,24,15,46,23.20
2008,07,24,15,47,23.30
2008,07,24,15,48,23.40
2008,07,24,15,49,23.50
2008,07,24,15,50,23.50
2008,07,24,15,51,23.50
2008,07,24,15,52,23.60
2008,07,24,15,53,23.70
2008,07,24,15,54,23.90
2008,07,24,15,55,23.90
2008,07,24,15,56,23.90
2008,07,24,15,57,23.90
2008,07,24,15,58,23.80
2008,07,24,15,59,23.80
2008,07,24,16,00,23.80
2008,07,24,16,01,23.70
2008,07,24,16,02,23.70
2008,07,24,16,03,23.70
2008,07,24,16,04,23.80
2008,07,24,16,05,23.80
2008,07,24,16,06,23.90
2008,07,24,16,07,24.00
2008,07,24,16,08,24.10
2008,07,24,16,09,24.10
2008,07,24,16,10,24.20
2008,07,24,16,11,24.20
2008,07,24,16,12,24.20
2008,07,24,16,13,24.30
2008,07,24,16,14,24.40
2008,07,24,16,15,24.30
2008,07,24,16,16,24.20
2008,07,24,16,17,24.20
2008,07,24,16,18,24.10
2008,07,24,16,19,24.10
2008,07,24,16,20,24.00
2008,07,24,16,21,23.90
2008,07,24,16,22,23.80
2008,07,24,16,23,23.70
2008,07,24,16,24,23.70
2008,07,24,16,25,23.60
2008,07,24,16,26,23.60
2008,07,24,16,27,23.60
2008,07,24,16,28,23.60
2008,07,24,16,29,23.50
2008,07,24,16,30,23.50
2008,07,24,16,31,23.50
2008,07,24,16,32,23.50
2008,07,24,16,33,23.50
2008,07,24,16,34,23.50
2008,07,24,16,35,23.50
2008,07,24,16,36,23.60
2008,07,24,16,37,23.70
2008,07,24,16,38,23.80
2008,07,24,16,39,23.80
2008,07,24,16,40,23.80
2008,07,24,16,41,23.80
2008,07,24,16,42,23.70
2008,07,24,16,43,23.60
2008,07,24,16,44,23.60
2008,07,24,16,45,23.70
2008,07,24,16,46,23.70
2008,07,24,16,47,23.80
2008,07,24,16,48,23.70
2008,07,24,16,49,23.80
2008,07,24,16,50,23.90
2008,07,24,16,51,23.90
2008,07,24,16,52,24.00
2008,07,24,16,53,23.90
2008,07,24,16,54,23.90
2008,07,24,16,55,23.90
2008,07,24,16,56,24.00
2008,07,24,16,57,24.00
2008,07,24,16,58,24.10
2008,07,24,16,59,24.00
2008,07,24,17,00,23.90
2008,07,24,17,01,23.80
2008,07,24,17,02,23.80
2008,07,24,17,03,23.80
2008,07,24,17,04,23.90
2008,07,24,17,05,23.90
2008,07,24,17,06,23.80
2008,07,24,17,07,23.80
2008,07,24,17,08,23.70
2008,07,24,17,09,23.60
2008,07,24,17,10,23.50
2008,07,24,17,11,23.40
2008,07,24,17,12,23.30
2008,07,24,17,13,23.20
2008,07,24,17,14,23.30
2008,07,24,17,15,23.30
2008,07,24,17,16,23.30
2008,07,24,17,17,23.40
2008,07,24,17,18,23.40
2008,07,24,17,19,23.50
2008,07,24,17,20,23.50
2008,07,24,17,21,23.60
2008,07,24,17,22,23.70
2008,07,24,17,23,23.70
2008,07,24,17,24,23.70
2008,07,24,17,25,23.60
2008,07,24,17,26,23.40
2008,07,24,17,27,23.30
2008,07,24,17,28,23.10
2008,07,24,17,29,23.00
2008,07,24,17,30,22.80
2008,07,24,17,31,22.60
2008,07,24,17,32,22.40
2008,07,24,17,33,22.30
2008,07,24,17,34,22.20
2008,07,24,17,35,22.00
2008,07,24,17,36,21.90
2008,07,24,17,37,21.80
2008,07,24,17,38,21.80
2008,07,24,17,39,21.80
2008,07,24,17,40,21.90
2008,07,24,17,41,21.90